Location: York
(31.8935°S, 116.7682°E)
Time: 00:47:49
(UTC+08:00)

Envisat - Pass Details

Date: 04 December 2021
Orbit: 764 x 766 km, 98.2° (Epoch: 28 January)

Event Time Altitude Azimuth Distance (km) Brightness Sun altitude
Rises 03:52:50 0° 33° (NNE) 3,220 6.2 -12.9°
Reaches altitude 10° 03:55:14 10° 40° (NE) 2,301 5.5 -12.5°
Maximum altitude 03:59:56 39° 108° (ESE) 1,149 4.6 -11.7°
Drops below altitude 10° 04:04:40 10° 175° (S) 2,327 6.1 -10.8°
Sets 04:07:06 0° 182° (S) 3,261 6.7 -10.4°
